University AP, Davis, CA, CA

2:50 AM PST on December 06, 2019 (GMT -0800)
University AP, Davis, CA

Weather History for KEDU - October, 2019

Change the Weather History Date:

Tuesday, October 15, 2019

  Actual Average (WUND) Record (WUND)
Temperature  
Mean Temperature 60 °F -  
Max Temperature 78 °F - - (-1)
Min Temperature 41 °F - - (-1)
Degree Days  
Heating Degree Days 6    
Growing Degree Days 10 (Base 50)    
Moisture  
Dew Point 40 °F    
Average Humidity 56    
Maximum Humidity 93    
Minimum Humidity 20    
Precipitation  
Precipitation 0.00 in - - ()
Sea Level Pressure  
Sea Level Pressure 30.04 in    
Wind  
Wind Speed 2 mph ()    
Max Wind Speed 5 mph    
Max Gust Speed -    
Visibility 9.9 miles    
Events      
Averages and records for this station are not official NWS values.
T = Trace of Precipitation, MM = Missing Value Source: Averaged Metar Reports

Daily Weather History Graph

Daily Weather History Graph

Search for Another Location

Airport or City:

Astronomy

Oct. 15, 2019 Rise Set
Actual Time 7:16 AM PDT 6:29 PM PDT
Civil Twilight 6:49 AM PDT 6:55 PM PDT
Nautical Twilight 6:18 AM PDT 7:26 PM PDT
Astronomical Twilight 5:47 AM PDT 7:57 PM PDT
Moon 7:52 PM PDT (10/15) 8:51 AM PDT (10/15)
Length of Visible Light 12h 06m
Length of Day
11h 13m
Waning Gibbous, 97% of the Moon is Illuminated
Oct 15
Waning Gibbous
Oct 21
Last Quarter
Oct 27
New
Nov 4
First Quarter
Nov 12
Full

Hourly Weather History & Observations

Time (PDT) Temp. Windchill Dew Point Humidity Pressure Visibility Wind Dir Wind Speed Gust Speed Precip Events Conditions
12:10 AM 50.0 °F - 42.8 °F 76% 30.00 in 10.0 mi South 3.5 mph - N/A   Clear
12:35 AM 50.0 °F - 41.0 °F 71% 30.00 in 10.0 mi Calm Calm - N/A   Clear
12:50 AM 48.2 °F - 41.0 °F 76% 30.00 in 10.0 mi Calm Calm - N/A   Clear
1:30 AM 48.2 °F - 41.0 °F 76% 30.00 in 10.0 mi ESE 3.5 mph - N/A   Clear
1:55 AM 48.2 °F - 41.0 °F 76% 30.01 in 10.0 mi Calm Calm - N/A   Clear
2:35 AM 46.4 °F 45.2 °F 41.0 °F 81% 30.02 in 10.0 mi SSE 3.5 mph - N/A   Clear
2:55 AM 46.4 °F 45.2 °F 42.8 °F 87% 30.02 in 10.0 mi South 3.5 mph - N/A   Clear
3:10 AM 46.4 °F - 42.8 °F 87% 30.02 in 10.0 mi Calm Calm - N/A   Clear
3:35 AM 46.4 °F - 42.8 °F 87% 30.02 in 10.0 mi Calm Calm - N/A   Clear
3:50 AM 44.6 °F - 41.0 °F 87% 30.02 in 10.0 mi Calm Calm - N/A   Clear
4:10 AM 44.6 °F - 39.2 °F 81% 30.02 in 10.0 mi Calm Calm - N/A   Clear
4:35 AM 41.0 °F - 39.2 °F 93% 30.02 in 10.0 mi Calm Calm - N/A   Clear
4:50 AM 44.6 °F - 39.2 °F 81% 30.03 in 10.0 mi Calm Calm - N/A   Clear
5:15 AM 41.0 °F - 37.4 °F 87% 30.03 in 10.0 mi Calm Calm - N/A   Clear
5:30 AM 42.8 °F 41.1 °F 37.4 °F 81% 30.04 in 10.0 mi WNW 3.5 mph - N/A   Clear
5:55 AM 41.0 °F - 37.4 °F 87% 30.04 in 10.0 mi Calm Calm - N/A   Clear
6:15 AM 41.0 °F - 37.4 °F 87% 30.05 in 10.0 mi Calm Calm - N/A   Clear
6:35 AM 42.8 °F 40.1 °F 39.2 °F 87% 30.06 in 10.0 mi NNW 4.6 mph - N/A   Clear
6:55 AM 41.0 °F - 35.6 °F 81% 30.06 in 10.0 mi Calm Calm - N/A   Clear
7:10 AM 41.0 °F 39.0 °F 37.4 °F 87% 30.07 in 10.0 mi North 3.5 mph - N/A   Clear
7:35 AM 44.6 °F 43.1 °F 39.2 °F 81% 30.07 in 10.0 mi NNW 3.5 mph - N/A   Clear
7:50 AM 44.6 °F - 39.2 °F 81% 30.08 in 8.0 mi Calm Calm - N/A   Clear
8:15 AM 46.4 °F 45.2 °F 39.2 °F 76% 30.09 in 10.0 mi NNW 3.5 mph - N/A   Clear
8:30 AM 48.2 °F - 41.0 °F 76% 30.10 in 9.0 mi North 4.6 mph - N/A   Clear
8:55 AM 50.0 °F - 41.0 °F 71% 30.10 in 9.0 mi North 3.5 mph - N/A   Clear
9:10 AM 51.8 °F - 42.8 °F 71% 30.11 in 8.0 mi North 4.6 mph - N/A   Clear
9:35 AM 53.6 °F - 44.6 °F 72% 30.11 in 10.0 mi NNW 4.6 mph - N/A   Clear
9:50 AM 55.4 °F - 44.6 °F 67% 30.11 in 10.0 mi NE 4.6 mph - N/A   Clear
10:15 AM 59.0 °F - 44.6 °F 59% 30.11 in 10.0 mi NNE 4.6 mph - N/A   Clear
10:30 AM 59.0 °F - 44.6 °F 59% 30.11 in 10.0 mi Calm Calm - N/A   Clear
10:55 AM 62.6 °F - 44.6 °F 52% 30.11 in 10.0 mi NE 3.5 mph - N/A   Clear
11:15 AM 64.4 °F - 44.6 °F 49% 30.11 in 10.0 mi ENE 4.6 mph - N/A   Clear
11:35 AM 66.2 °F - 42.8 °F 43% 30.11 in 10.0 mi East 3.5 mph - N/A   Clear
11:55 AM 66.2 °F - 41.0 °F 40% 30.11 in 10.0 mi Calm Calm - N/A   Clear
12:10 PM 68.0 °F - 41.0 °F 37% 30.10 in 10.0 mi NE 3.5 mph - N/A   Clear
12:35 PM 68.0 °F - 41.0 °F 37% 30.10 in 10.0 mi Calm Calm - N/A   Clear
12:50 PM 71.6 °F - 41.0 °F 33% 30.09 in 10.0 mi NNW 3.5 mph - N/A   Clear
1:15 PM 71.6 °F - 41.0 °F 33% 30.08 in 10.0 mi NNE 3.5 mph - N/A   Clear
1:30 PM 73.4 °F - 39.2 °F 29% 30.08 in 9.0 mi Calm Calm - N/A   Clear
1:55 PM 75.2 °F - 41.0 °F 29% 30.06 in 10.0 mi East 3.5 mph - N/A   Clear
2:10 PM 75.2 °F - 39.2 °F 27% 30.05 in 10.0 mi Calm Calm - N/A   Clear
2:35 PM 77.0 °F - 39.2 °F 26% 30.04 in 9.0 mi SSE 4.6 mph - N/A   Clear
2:50 PM 77.0 °F - 39.2 °F 26% 30.03 in 9.0 mi East 3.5 mph - N/A   Clear
3:15 PM 77.0 °F - 37.4 °F 24% 30.03 in 10.0 mi ESE 3.5 mph - N/A   Clear
3:35 PM 77.0 °F - 35.6 °F 22% 30.02 in 10.0 mi ESE 3.5 mph - N/A   Clear
3:55 PM 78.8 °F - 35.6 °F 21% 30.01 in 10.0 mi SE 3.5 mph - N/A   Clear
4:15 PM 78.8 °F - 33.8 °F 20% 30.01 in 10.0 mi Calm Calm - N/A   Clear
4:30 PM 78.8 °F - 35.6 °F 21% 30.00 in 10.0 mi Calm Calm - N/A   Clear
4:55 PM 78.8 °F - 37.4 °F 23% 30.00 in 10.0 mi Calm Calm - N/A   Clear
5:10 PM 78.8 °F - 37.4 °F 23% 30.00 in 10.0 mi South 3.5 mph - N/A   Clear
5:35 PM 77.0 °F - 37.4 °F 24% 30.00 in 10.0 mi SSW 3.5 mph - N/A   Clear
5:50 PM 77.0 °F - 39.2 °F 26% 29.99 in 10.0 mi Calm Calm - N/A   Clear
6:15 PM 73.4 °F - 39.2 °F 29% 29.99 in 10.0 mi SW 3.5 mph - N/A   Clear
6:30 PM 71.6 °F - 39.2 °F 31% 29.99 in 10.0 mi SW 4.6 mph - N/A   Clear
6:55 PM 64.4 °F - 39.2 °F 40% 29.99 in 10.0 mi Calm Calm - N/A   Clear
7:15 PM 64.4 °F - 39.2 °F 40% 29.99 in 10.0 mi Calm Calm - N/A   Clear
7:35 PM 64.4 °F - 37.4 °F 37% 29.99 in 10.0 mi Calm Calm - N/A   Clear
7:55 PM 62.6 °F - 39.2 °F 42% 30.00 in 10.0 mi South 3.5 mph - N/A   Clear
8:15 PM 62.6 °F - 39.2 °F 42% 30.00 in 10.0 mi West 3.5 mph - N/A   Clear
8:35 PM 59.0 °F - 39.2 °F 48% 30.00 in 10.0 mi Calm Calm - N/A   Clear
8:50 PM 57.2 °F - 41.0 °F 55% 30.00 in 10.0 mi Calm Calm - N/A   Clear
9:15 PM 57.2 °F - 39.2 °F 51% 30.01 in 10.0 mi Calm Calm - N/A   Clear
9:30 PM 57.2 °F - 41.0 °F 55% 30.00 in 10.0 mi Calm Calm - N/A   Clear
9:55 PM 55.4 °F - 41.0 °F 58% 30.01 in 10.0 mi Calm Calm - N/A   Clear
10:10 PM 53.6 °F - 41.0 °F 62% 30.00 in 10.0 mi Calm Calm - N/A   Clear
10:35 PM 53.6 °F - 41.0 °F 62% 30.00 in 10.0 mi Calm Calm - N/A   Clear
10:50 PM 53.6 °F - 41.0 °F 62% 30.01 in 10.0 mi Calm Calm - N/A   Clear
11:15 PM 53.6 °F - 41.0 °F 62% 30.01 in 10.0 mi Calm Calm - N/A   Clear
11:35 PM 51.8 °F - 41.0 °F 67% 30.01 in 10.0 mi North - - N/A   Clear
11:55 PM 50.0 °F - 39.2 °F 66% 30.01 in 10.0 mi Calm Calm - N/A   Clear